^^
Saratoga-Weather Station Historical Data
Daily Summary for July 23, 2021 Units:  English    Metric   Both
Daily Weekly Monthly Yearly Custom
  High: Low: Average:
Temperature: 83.7 °F 59.7 °F 71.8 °F
Dew Point: 61.9 °F 56.5 °F 58.6 °F
Humidity: 91% 40% 66%
Wind Speed: 7mph 0mph 1.1mph
Wind Gust: 10mph - -
Wind- - ESE
Pressure: 30 in 29.8 in -
Precipitation: 0 in    
Historical Graphs
 
 
Tabular Data for July 23, 2021
Time Temperature Dew Point Pressure Wind Wind Speed Wind Gust Humidity Rainfall Rate (Hourly) solar
00:03 65.1 °F 58.5 °F 30 in Calm     79% 0 in 0 W/m2
00:08 64.9 °F 58.3 °F 30 in Calm   1 mph 79% 0 in 0 W/m2
00:13 64.8 °F 58.1 °F 30 in Calm     79% 0 in 0 W/m2
00:18 64.6 °F 58.3 °F 30 in Calm   1 mph 80% 0 in 0 W/m2
00:23 64.6 °F 58.3 °F 30 in Calm     80% 0 in 0 W/m2
00:28 64.2 °F 57.9 °F 30 in Calm   1 mph 80% 0 in 0 W/m2
00:33 64.2 °F 58.3 °F 30 in Calm     81% 0 in 0 W/m2
00:38 64 °F 58.1 °F 30 in Calm     81% 0 in 0 W/m2
00:43 63.9 °F 57.9 °F 30 in Calm     81% 0 in 0 W/m2
00:48 63.7 °F 58.1 °F 30 in Calm     82% 0 in 0 W/m2
00:53 63.5 °F 57.9 °F 30 in Calm   1 mph 82% 0 in 0 W/m2
00:58 63.3 °F 58.1 °F 30 in Calm     83% 0 in 0 W/m2
01:03 63.1 °F 57.9 °F 30 in Calm   1 mph 83% 0 in 0 W/m2
01:08 63.1 °F 57.9 °F 30 in Calm     83% 0 in 0 W/m2
01:13 63 °F 57.7 °F 30 in Calm   1 mph 83% 0 in 0 W/m2
01:18 63 °F 57.7 °F 30 in Calm     83% 0 in 0 W/m2
01:23 62.8 °F 57.6 °F 30 in Calm   1 mph 83% 0 in 0 W/m2
01:28 62.6 °F 57.7 °F 30 in Calm     84% 0 in 0 W/m2
01:33 62.4 °F 57.6 °F 30 in Calm     84% 0 in 0 W/m2
01:38 62.4 °F 57.9 °F 30 in Calm     85% 0 in 0 W/m2
01:43 62.2 °F 57.7 °F 30 in Calm     85% 0 in 0 W/m2
01:48 62.1 °F 57.6 °F 30 in Calm     85% 0 in 0 W/m2
01:53 62.1 °F 57.7 °F 30 in Calm   1 mph 86% 0 in 0 W/m2
01:58 61.9 °F 57.6 °F 30 in Calm   1 mph 86% 0 in 0 W/m2
02:03 61.9 °F 57.6 °F 30 in Calm     86% 0 in 0 W/m2
02:08 61.7 °F 57.4 °F 30 in Calm     86% 0 in 0 W/m2
02:13 61.5 °F 57.4 °F 30 in Calm     86% 0 in 0 W/m2
02:18 61.3 °F 57.2 °F 30 in Calm     86% 0 in 0 W/m2
02:23 61.3 °F 57.2 °F 30 in Calm     86% 0 in 0 W/m2
02:28 61.3 °F 57.4 °F 30 in Calm     87% 0 in 0 W/m2
02:33 61.2 °F 57.2 °F 30 in Calm     87% 0 in 0 W/m2
02:38 61.2 °F 57.2 °F 30 in Calm     87% 0 in 0 W/m2
02:43 61 °F 57 °F 30 in Calm     87% 0 in 0 W/m2
02:48 61 °F 57 °F 30 in Calm     87% 0 in 0 W/m2
02:53 61 °F 57.4 °F 30 in Calm     88% 0 in 0 W/m2
02:59 60.8 °F 57.2 °F 30 in Calm     88% 0 in 0 W/m2
03:04 60.8 °F 57.2 °F 30 in Calm     88% 0 in 0 W/m2
03:09 60.6 °F 57 °F 30 in Calm     88% 0 in 0 W/m2
03:14 60.4 °F 56.8 °F 30 in Calm     88% 0 in 0 W/m2
03:19 60.4 °F 56.8 °F 30 in Calm     88% 0 in 0 W/m2
03:24 60.3 °F 57 °F 30 in Calm     89% 0 in 0 W/m2
03:29 60.3 °F 57 °F 30 in Calm     89% 0 in 0 W/m2
03:34 60.3 °F 57.4 °F 30 in Calm     90% 0 in 0 W/m2
03:39 60.3 °F 57.4 °F 30 in WNW 0.9 mph 1 mph 90% 0 in 0 W/m2
03:44 60.3 °F 57.4 °F 30 in Calm     90% 0 in 0 W/m2
03:49 60.3 °F 57.4 °F 30 in Calm     90% 0 in 0 W/m2
03:54 60.3 °F 57.4 °F 30 in Calm     90% 0 in 0 W/m2
03:59 60.3 °F 57.6 °F 30 in Calm     91% 0 in 0 W/m2
04:04 60.3 °F 57.6 °F 30 in Calm     91% 0 in 0 W/m2
04:09 60.3 °F 57.6 °F 30 in Calm   2 mph 91% 0 in 0 W/m2
04:14 60.3 °F 57.6 °F 30 in Calm   2 mph 91% 0 in 0 W/m2
04:19 60.3 °F 57.6 °F 30 in SSW 0.9 mph 2 mph 91% 0 in 0 W/m2
04:24 60.4 °F 57.6 °F 30 in SSW 2 mph 2 mph 90% 0 in 0 W/m2
04:29 60.4 °F 57.6 °F 30 in Calm   1 mph 90% 0 in 0 W/m2
04:34 60.4 °F 57.6 °F 30 in Calm     90% 0 in 0 W/m2
04:39 60.4 °F 57.6 °F 30 in Calm   1 mph 90% 0 in 0 W/m2
04:44 60.4 °F 57.6 °F 30 in Calm   1 mph 90% 0 in 0 W/m2
04:49 60.4 °F 57.6 °F 30 in Calm   1 mph 90% 0 in 0 W/m2
04:54 60.4 °F 57.6 °F 30 in Calm     90% 0 in 0 W/m2
04:59 60.4 °F 57.6 °F 30 in Calm   1 mph 90% 0 in 0 W/m2
05:04 60.4 °F 57.6 °F 30 in Calm   1 mph 90% 0 in 0 W/m2
05:09 60.4 °F 57.2 °F 30 in Calm     89% 0 in 0 W/m2
05:14 60.4 °F 57.6 °F 30 in Calm     90% 0 in 0 W/m2
05:19 60.4 °F 57.2 °F 30 in SSW 0.9 mph 1 mph 89% 0 in 0 W/m2
05:24 60.6 °F 57.4 °F 30 in Calm     89% 0 in 0 W/m2
05:29 60.4 °F 57.2 °F 30 in SSW 0.9 mph 2 mph 89% 0 in 0 W/m2
05:34 60.4 °F 57.2 °F 30 in Calm     89% 0 in 0 W/m2
05:39 60.4 °F 57.2 °F 30 in Calm     89% 0 in 0 W/m2
05:44 60.3 °F 57 °F 30 in Calm     89% 0 in 0 W/m2
05:49 60.3 °F 57 °F 30 in Calm     89% 0 in 0 W/m2
05:54 60.1 °F 56.8 °F 30 in Calm     89% 0 in 0 W/m2
05:59 60.1 °F 57.2 °F 30 in Calm   1 mph 90% 0 in 5 W/m2
06:04 59.9 °F 57 °F 30 in Calm     90% 0 in 7 W/m2
06:09 59.9 °F 57 °F 30 in SSW 0.9 mph 1 mph 90% 0 in 9 W/m2
06:14 59.7 °F 56.8 °F 30 in Calm   1 mph 90% 0 in 12 W/m2
06:19 59.7 °F 57 °F 30 in Calm     91% 0 in 14 W/m2
06:24 59.7 °F 57 °F 30 in Calm     91% 0 in 18 W/m2
06:29 59.7 °F 57 °F 30 in Calm     91% 0 in 21 W/m2
06:34 59.7 °F 57 °F 30 in Calm     91% 0 in 25 W/m2
06:39 59.7 °F 57 °F 30 in Calm     91% 0 in 26 W/m2
06:44 59.9 °F 57.2 °F 30 in Calm     91% 0 in 30 W/m2
06:49 60.1 °F 57.4 °F 30 in Calm     91% 0 in 32 W/m2
06:54 60.1 °F 57.4 °F 30 in Calm     91% 0 in 35 W/m2
06:59 60.3 °F 57.6 °F 30 in Calm     91% 0 in 39 W/m2
07:04 60.3 °F 57.6 °F 30 in Calm     91% 0 in 40 W/m2
07:09 60.4 °F 57.7 °F 30 in Calm     91% 0 in 42 W/m2
07:15 60.6 °F 57.9 °F 30 in Calm     91% 0 in 46 W/m2
07:20 60.8 °F 58.1 °F 30 in Calm     91% 0 in 47 W/m2
07:25 61 °F 58.1 °F 30 in Calm     90% 0 in 51 W/m2
07:30 61.2 °F 58.3 °F 30 in Calm     90% 0 in 54 W/m2
07:35 61.3 °F 58.1 °F 30 in Calm     89% 0 in 56 W/m2
07:40 61.7 °F 58.1 °F 30 in Calm     88% 0 in 62 W/m2
07:45 62.1 °F 58.1 °F 30 in Calm     87% 0 in 63 W/m2
07:50 62.4 °F 58.1 °F 30 in Calm   3 mph 86% 0 in 63 W/m2
07:55 62.8 °F 58.3 °F 30 in Calm     85% 0 in 118 W/m2
08:00 63 °F 58.5 °F 30 in Calm   2 mph 85% 0 in 172 W/m2
08:05 63.3 °F 58.8 °F 30 in NE 2 mph 3 mph 85% 0 in 123 W/m2
08:10 64.2 °F 59.4 °F 30 in NE 2.9 mph 3 mph 84% 0 in 83 W/m2
08:15 64.9 °F 59.4 °F 30 in East 2 mph 2 mph 82% 0 in 79 W/m2
08:20 65.5 °F 59.5 °F 30 in Calm     81% 0 in 81 W/m2
08:25 65.7 °F 59.4 °F 30 in NW 2 mph 3 mph 80% 0 in 83 W/m2
08:30 65.7 °F 59.4 °F 30 in Calm   4 mph 80% 0 in 83 W/m2
08:35 66.2 °F 59.9 °F 30 in ENE 2 mph 2 mph 80% 0 in 84 W/m2
08:40 66.6 °F 59.9 °F 30 in Calm     79% 0 in 86 W/m2
08:45 67.1 °F 60.1 °F 30 in Calm   4 mph 78% 0 in 88 W/m2
08:50 67.5 °F 60.1 °F 30 in ENE 2.9 mph 3 mph 77% 0 in 90 W/m2
08:55 67.6 °F 59.7 °F 30 in ESE 2 mph 3 mph 76% 0 in 91 W/m2
09:00 67.6 °F 59.7 °F 30 in ENE 2 mph 3 mph 76% 0 in 109 W/m2
09:05 67.8 °F 59.5 °F 30 in North 2 mph 3 mph 75% 0 in 211 W/m2
09:10 68.2 °F 59.9 °F 30 in NE 0.9 mph 2 mph 75% 0 in 353 W/m2
09:15 68.4 °F 59.7 °F 30 in NNE 0.9 mph 1 mph 74% 0 in 380 W/m2
09:20 68.4 °F 59.4 °F 30 in North 2 mph 3 mph 73% 0 in 396 W/m2
09:25 68.7 °F 60.1 °F 30 in ENE 0.9 mph 3 mph 74% 0 in 413 W/m2
09:30 68.9 °F 60.3 °F 30 in East 0.9 mph 2 mph 74% 0 in 429 W/m2
09:35 69.3 °F 59.9 °F 30 in ESE 0.9 mph 4 mph 72% 0 in 443 W/m2
09:40 69.4 °F 59.2 °F 30 in ENE 2 mph 5 mph 70% 0 in 459 W/m2
09:45 69.4 °F 59.5 °F 30 in Calm   2 mph 71% 0 in 468 W/m2
09:50 69.6 °F 59.7 °F 30 in NE 2 mph 5 mph 71% 0 in 485 W/m2
09:55 70.2 °F 59.9 °F 30 in SE 2 mph 4 mph 70% 0 in 499 W/m2
10:00 70.3 °F 60.1 °F 30 in East 2 mph 4 mph 70% 0 in 457 W/m2
10:05 70.5 °F 60.3 °F 30 in ENE 0.9 mph 4 mph 70% 0 in 111 W/m2
10:10 70.9 °F 60.6 °F 30 in NNW 2 mph 3 mph 70% 0 in 510 W/m2
10:15 71.2 °F 60.1 °F 30 in NNW 4 mph 4 mph 68% 0 in 552 W/m2
10:20 71.4 °F 60.8 °F 30 in NNW 2.9 mph 3 mph 69% 0 in 563 W/m2
10:25 71.8 °F 60.3 °F 30 in NE 0.9 mph 4 mph 67% 0 in 578 W/m2
10:30 72.1 °F 60.6 °F 30 in East 2 mph 2 mph 67% 0 in 589 W/m2
10:35 72.5 °F 60.4 °F 30 in East 4.9 mph 7 mph 66% 0 in 603 W/m2
10:40 72.9 °F 60.8 °F 30 in Calm   4 mph 66% 0 in 613 W/m2
10:45 73 °F 60.6 °F 30 in SW 2.9 mph 3 mph 65% 0 in 621 W/m2
10:50 73.2 °F 60.3 °F 30 in NNE 0.9 mph 4 mph 64% 0 in 636 W/m2
10:55 73.8 °F 61.3 °F 30 in NE 2 mph 3 mph 65% 0 in 647 W/m2
11:00 74.3 °F 60.8 °F 30 in ENE 2 mph 6 mph 63% 0 in 654 W/m2
11:05 74.7 °F 61.2 °F 30 in Calm   4 mph 63% 0 in 666 W/m2
11:10 75 °F 61.2 °F 30 in ENE 2.9 mph 5 mph 62% 0 in 671 W/m2
11:15 75.4 °F 61.9 °F 30 in Calm   2 mph 63% 0 in 682 W/m2
11:20 75.9 °F 61.5 °F 30 in ESE 2 mph 5 mph 61% 0 in 694 W/m2
11:25 76.5 °F 61.5 °F 30 in Calm   6 mph 60% 0 in 708 W/m2
11:30 76.6 °F 61.2 °F 30 in ENE 2.9 mph 7 mph 59% 0 in 717 W/m2
11:35 77.2 °F 61.3 °F 30 in East 2 mph 5 mph 58% 0 in 722 W/m2
11:40 77.4 °F 61 °F 30 in NNE 2 mph 6 mph 57% 0 in 733 W/m2
11:45 77 °F 61.5 °F 30 in ENE 4 mph 6 mph 59% 0 in 742 W/m2
11:50 77.2 °F 60.3 °F 30 in Calm   3 mph 56% 0 in 752 W/m2
12:00 78.1 °F 60.6 °F 30 in East 2 mph 2 mph 55% 0 in 768 W/m2
12:05 78.3 °F 59.7 °F 30 in ENE 2 mph 2 mph 53% 0 in 779 W/m2
12:10 78.6 °F 60.1 °F 30 in ENE 6 mph 7 mph 53% 0 in 784 W/m2
12:15 79 °F 61.5 °F 30 in ESE 2.9 mph 4 mph 55% 0 in 795 W/m2
12:20 79 °F 59.9 °F 30 in East 2 mph 5 mph 52% 0 in 812 W/m2
12:25 79.2 °F 60.1 °F 30 in ENE 0.9 mph 5 mph 52% 0 in 805 W/m2
12:30 79.3 °F 60.8 °F 30 in SW 0.9 mph 4 mph 53% 0 in 812 W/m2
12:35 79.5 °F 59.7 °F 30 in ENE 0.9 mph 6 mph 51% 0 in 828 W/m2
12:40 79.5 °F 61.3 °F 30 in SE 2.9 mph 5 mph 54% 0 in 847 W/m2
12:45 79.9 °F 59.5 °F 30 in Calm   4 mph 50% 0 in 838 W/m2
12:50 80.1 °F 60.3 °F 29.9 in East 2 mph 2 mph 51% 0 in 838 W/m2
12:55 80.1 °F 60.3 °F 29.9 in East 4 mph 6 mph 51% 0 in 844 W/m2
13:00 80.1 °F 59.7 °F 29.9 in East 0.9 mph 9 mph 50% 0 in 853 W/m2
13:05 80.1 °F 59.7 °F 29.9 in SE 4 mph 5 mph 50% 0 in 844 W/m2
13:10 80.1 °F 58.6 °F 29.9 in NNE 4.9 mph 6 mph 48% 0 in 851 W/m2
13:15 80.1 °F 59.2 °F 29.9 in ENE 0.9 mph 3 mph 49% 0 in 863 W/m2
13:20 80.2 °F 59.9 °F 29.9 in ESE 0.9 mph 4 mph 50% 0 in 872 W/m2
13:25 80.4 °F 57.7 °F 29.9 in NNW 0.9 mph 9 mph 46% 0 in 881 W/m2
13:30 80.2 °F 58.8 °F 29.9 in Calm   4 mph 48% 0 in 874 W/m2
13:35 80.2 °F 58.1 °F 29.9 in East 0.9 mph 9 mph 47% 0 in 888 W/m2
13:40 80.6 °F 57.9 °F 29.9 in Calm   4 mph 46% 0 in 865 W/m2
13:45 80.8 °F 58.6 °F 29.9 in East 7 mph 7 mph 47% 0 in 861 W/m2
13:50 80.8 °F 57.4 °F 29.9 in East 2.9 mph 6 mph 45% 0 in 872 W/m2
13:55 80.8 °F 58.1 °F 29.9 in NE 0.9 mph 3 mph 46% 0 in 865 W/m2
14:00 81 °F 58.8 °F 29.9 in NE 2.9 mph 3 mph 47% 0 in 868 W/m2
14:05 81.1 °F 57.7 °F 29.9 in ENE 2.9 mph 5 mph 45% 0 in 858 W/m2
14:10 81.5 °F 59.9 °F 29.9 in East 2.9 mph 5 mph 48% 0 in 867 W/m2
14:16 81.7 °F 57 °F 29.9 in SE 2.9 mph 7 mph 43% 0 in 872 W/m2
14:21 81.3 °F 58.6 °F 29.9 in SE 4.9 mph 5 mph 46% 0 in 877 W/m2
14:26 81.3 °F 57.9 °F 29.9 in East 2 mph 8 mph 45% 0 in 865 W/m2
14:31 81.3 °F 57.4 °F 29.9 in SE 2 mph 5 mph 44% 0 in 849 W/m2
14:36 81.1 °F 57.2 °F 29.9 in NNW 0.9 mph 4 mph 44% 0 in 833 W/m2
14:41 81.1 °F 59.5 °F 29.9 in NE 0.9 mph 4 mph 48% 0 in 856 W/m2
14:46 81.7 °F 59.5 °F 29.9 in East 0.9 mph 9 mph 47% 0 in 867 W/m2
14:51 81.9 °F 59.7 °F 29.9 in SE 2 mph 3 mph 47% 0 in 853 W/m2
14:56 81.9 °F 58.5 °F 29.9 in East 2.9 mph 9 mph 45% 0 in 858 W/m2
15:01 82 °F 56.7 °F 29.9 in NNE 2 mph 7 mph 42% 0 in 874 W/m2
15:06 82 °F 57.9 °F 29.9 in WNW 2.9 mph 4 mph 44% 0 in 854 W/m2
15:11 82 °F 60.4 °F 29.9 in ESE 2 mph 5 mph 48% 0 in 800 W/m2
15:16 82.2 °F 60.6 °F 29.9 in NNW 2 mph 6 mph 48% 0 in 826 W/m2
15:21 82.2 °F 58.8 °F 29.9 in NNW 2 mph 8 mph 45% 0 in 668 W/m2
15:26 82 °F 59.2 °F 29.9 in SE 0.9 mph 3 mph 46% 0 in 721 W/m2
15:31 82 °F 60.4 °F 29.9 in SE 2.9 mph 4 mph 48% 0 in 561 W/m2
15:36 82.2 °F 59.9 °F 29.9 in SE 0.9 mph 3 mph 47% 0 in 563 W/m2
15:41 82.4 °F 61.3 °F 29.9 in ENE 2 mph 2 mph 49% 0 in 534 W/m2
15:46 82.6 °F 59 °F 29.9 in East 2 mph 3 mph 45% 0 in 668 W/m2
15:51 82.8 °F 59.9 °F 29.9 in Calm   2 mph 46% 0 in 812 W/m2
15:56 83.1 °F 60.3 °F 29.9 in East 4 mph 4 mph 46% 0 in 671 W/m2
16:01 83.3 °F 59.2 °F 29.9 in East 2 mph 6 mph 44% 0 in 647 W/m2
16:06 83.5 °F 59.9 °F 29.9 in North 0.9 mph 2 mph 45% 0 in 693 W/m2
16:11 83.5 °F 61.2 °F 29.9 in Calm   2 mph 47% 0 in 462 W/m2
16:16 83.3 °F 59.2 °F 29.9 in ENE 2 mph 6 mph 44% 0 in 396 W/m2
16:21 82.9 °F 58.1 °F 29.9 in SE 2 mph 2 mph 43% 0 in 684 W/m2
16:26 83.1 °F 60.3 °F 29.9 in NE 2 mph 2 mph 46% 0 in 705 W/m2
16:31 83.5 °F 58.6 °F 29.9 in Calm   7 mph 43% 0 in 659 W/m2
16:36 83.7 °F 58.8 °F 29.9 in Calm   4 mph 43% 0 in 594 W/m2
16:41 83.5 °F 58.6 °F 29.9 in ENE 4.9 mph 10 mph 43% 0 in 373 W/m2
16:46 82.9 °F 58.1 °F 29.9 in NNE 0.9 mph 5 mph 43% 0 in 424 W/m2
16:51 82.8 °F 58.6 °F 29.9 in Calm   10 mph 44% 0 in 547 W/m2
16:56 82.9 °F 58.1 °F 29.9 in NNE 0.9 mph 3 mph 43% 0 in 390 W/m2
17:01 82.8 °F 59.9 °F 29.9 in SE 0.9 mph 6 mph 46% 0 in 397 W/m2
17:06 82.9 °F 58.1 °F 29.9 in East 4 mph 7 mph 43% 0 in 694 W/m2
17:11 83.1 °F 57.6 °F 29.9 in North 0.9 mph 4 mph 42% 0 in 705 W/m2
17:16 83.7 °F 57.4 °F 29.9 in East 4.9 mph 7 mph 41% 0 in 529 W/m2
17:21 83.7 °F 57.4 °F 29.9 in ENE 2.9 mph 5 mph 41% 0 in 519 W/m2
17:26 83.1 °F 59.5 °F 29.9 in East 0.9 mph 7 mph 45% 0 in 169 W/m2
17:31 82.9 °F 58.1 °F 29.9 in ESE 2.9 mph 4 mph 43% 0 in 629 W/m2
17:36 83.1 °F 58.3 °F 29.9 in SE 2.9 mph 3 mph 43% 0 in 601 W/m2
17:41 83.1 °F 57 °F 29.9 in ENE 4.9 mph 9 mph 41% 0 in 601 W/m2
17:46 83.1 °F 57 °F 29.9 in East 2.9 mph 6 mph 41% 0 in 543 W/m2
17:51 83.3 °F 56.5 °F 29.9 in SSE 4 mph 5 mph 40% 0 in 557 W/m2
17:56 83.3 °F 56.5 °F 29.9 in East 2 mph 3 mph 40% 0 in 494 W/m2
18:01 83.1 °F 58.3 °F 29.9 in Calm   6 mph 43% 0 in 197 W/m2
18:06 82.9 °F 57.6 °F 29.9 in East 2.9 mph 4 mph 42% 0 in 512 W/m2
18:11 83.1 °F 58.3 °F 29.9 in East 2 mph 6 mph 43% 0 in 519 W/m2
18:16 83.7 °F 57.4 °F 29.9 in ESE 2 mph 4 mph 41% 0 in 499 W/m2
18:21 83.7 °F 58.1 °F 29.9 in Calm   7 mph 42% 0 in 299 W/m2
18:26 83.5 °F 59.4 °F 29.9 in Calm   3 mph 44% 0 in 403 W/m2
18:31 83.5 °F 57.9 °F 29.9 in Calm   5 mph 42% 0 in 436 W/m2
18:36 83.5 °F 57.9 °F 29.8 in East 2 mph 4 mph 42% 0 in 417 W/m2
18:41 83.3 °F 57.2 °F 29.8 in NE 4 mph 9 mph 41% 0 in 390 W/m2
18:46 83.5 °F 59.9 °F 29.8 in East 2 mph 3 mph 45% 0 in 353 W/m2
18:51 83.5 °F 58.6 °F 29.8 in SSE 2.9 mph 6 mph 43% 0 in 330 W/m2
18:56 83.5 °F 57.9 °F 29.8 in ENE 2.9 mph 10 mph 42% 0 in 288 W/m2
19:01 82.9 °F 57.6 °F 29.8 in Calm   4 mph 42% 0 in 176 W/m2
19:06 82.2 °F 57.6 °F 29.8 in ENE 2 mph 10 mph 43% 0 in 95 W/m2
19:11 81.9 °F 57.7 °F 29.8 in Calm   1 mph 44% 0 in 76 W/m2
19:16 81.3 °F 58.6 °F 29.8 in ENE 0.9 mph 2 mph 46% 0 in 77 W/m2
19:21 80.6 °F 57.9 °F 29.8 in SSE 2 mph 2 mph 46% 0 in 86 W/m2
19:26 80.2 °F 58.1 °F 29.8 in East 2 mph 6 mph 47% 0 in 95 W/m2
19:31 80.1 °F 59.2 °F 29.8 in Calm   1 mph 49% 0 in 239 W/m2
19:36 80.1 °F 58.6 °F 29.8 in ENE 2 mph 9 mph 48% 0 in 139 W/m2
19:41 80.2 °F 58.1 °F 29.8 in ENE 2 mph 2 mph 47% 0 in 230 W/m2
19:46 80.4 °F 59 °F 29.8 in NE 2.9 mph 9 mph 48% 0 in 255 W/m2
19:51 80.8 °F 58.6 °F 29.8 in ENE 0.9 mph 6 mph 47% 0 in 225 W/m2
19:56 81 °F 59.4 °F 29.8 in ENE 4.9 mph 6 mph 48% 0 in 116 W/m2
20:01 80.4 °F 58.3 °F 29.8 in ENE 4 mph 4 mph 47% 0 in 86 W/m2
20:06 80.1 °F 58.1 °F 29.8 in East 2 mph 3 mph 47% 0 in 88 W/m2
20:11 79.5 °F 58.6 °F 29.8 in East 2.9 mph 3 mph 49% 0 in 97 W/m2
20:16 79.2 °F 58.3 °F 29.8 in East 0.9 mph 5 mph 49% 0 in 83 W/m2
20:21 79 °F 57.6 °F 29.8 in NE 0.9 mph 4 mph 48% 0 in 84 W/m2
20:26 78.8 °F 57.4 °F 29.8 in East 2 mph 9 mph 48% 0 in 84 W/m2
20:31 78.8 °F 57.4 °F 29.8 in East 2.9 mph 4 mph 48% 0 in 58 W/m2
20:36 78.6 °F 57.2 °F 29.8 in ENE 4 mph 9 mph 48% 0 in 46 W/m2
20:41 78.4 °F 57.7 °F 29.8 in ENE 2 mph 3 mph 49% 0 in 40 W/m2
20:46 78.1 °F 57.4 °F 29.8 in ESE 2 mph 7 mph 49% 0 in 33 W/m2
20:51 77.7 °F 58.1 °F 29.8 in ENE 0.9 mph 3 mph 51% 0 in 32 W/m2
20:56 77.4 °F 57.7 °F 29.8 in ESE 4 mph 7 mph 51% 0 in 25 W/m2
21:01 77.2 °F 58.3 °F 29.8 in East 2.9 mph 4 mph 52% 0 in 21 W/m2
21:06 76.8 °F 58.5 °F 29.8 in East 0.9 mph 2 mph 53% 0 in 16 W/m2
21:11 76.6 °F 59.2 °F 29.8 in Calm   2 mph 55% 0 in 11 W/m2
21:16 76.3 °F 59 °F 29.8 in ESE 4 mph 6 mph 55% 0 in 7 W/m2
21:21 75.9 °F 58.6 °F 29.8 in East 4 mph 9 mph 55% 0 in 5 W/m2
21:26 75.7 °F 59 °F 29.8 in SE 0.9 mph 2 mph 56% 0 in 0 W/m2
21:31 75.4 °F 58.6 °F 29.8 in Calm   9 mph 56% 0 in 0 W/m2
21:36 75 °F 59.2 °F 29.8 in East 2 mph 4 mph 58% 0 in 0 W/m2
21:41 74.7 °F 59.4 °F 29.8 in Calm   6 mph 59% 0 in 0 W/m2
21:46 73.9 °F 58.6 °F 29.8 in ENE 0.9 mph 2 mph 59% 0 in 0 W/m2
21:51 73.6 °F 58.8 °F 29.8 in ESE 0.9 mph 4 mph 60% 0 in 0 W/m2
21:56 73.2 °F 59 °F 29.8 in Calm   1 mph 61% 0 in 0 W/m2
22:01 72.9 °F 59 °F 29.8 in Calm     62% 0 in 0 W/m2
22:06 72.5 °F 58.8 °F 29.8 in ENE 0.9 mph 3 mph 62% 0 in 0 W/m2
22:11 72.3 °F 59 °F 29.8 in Calm     63% 0 in 0 W/m2
22:16 72 °F 58.6 °F 29.8 in Calm   1 mph 63% 0 in 0 W/m2
22:21 71.8 °F 58.5 °F 29.8 in ENE 0.9 mph 2 mph 63% 0 in 0 W/m2
22:26 71.4 °F 58.6 °F 29.8 in Calm   1 mph 64% 0 in 0 W/m2
22:31 71.2 °F 59.4 °F 29.8 in Calm   2 mph 66% 0 in 0 W/m2
22:36 70.9 °F 59 °F 29.8 in Calm     66% 0 in 0 W/m2
22:41 70.5 °F 59 °F 29.8 in Calm     67% 0 in 0 W/m2
22:46 70.3 °F 58.8 °F 29.8 in ENE 0.9 mph 1 mph 67% 0 in 0 W/m2
22:51 70 °F 59 °F 29.8 in Calm     68% 0 in 0 W/m2
22:56 69.8 °F 58.8 °F 29.8 in SE 2 mph 2 mph 68% 0 in 0 W/m2
23:01 69.6 °F 59 °F 29.8 in Calm   1 mph 69% 0 in 0 W/m2
23:07 69.4 °F 58.8 °F 29.8 in SE 0.9 mph 2 mph 69% 0 in 0 W/m2
23:12 69.3 °F 59 °F 29.8 in Calm   1 mph 70% 0 in 0 W/m2
23:17 69.1 °F 58.8 °F 29.8 in SE 0.9 mph 1 mph 70% 0 in 0 W/m2
23:22 68.7 °F 59 °F 29.8 in SE 0.9 mph 1 mph 71% 0 in 0 W/m2
23:27 68.5 °F 58.8 °F 29.8 in Calm     71% 0 in 0 W/m2
23:32 68.2 °F 58.8 °F 29.8 in Calm     72% 0 in 0 W/m2
23:37 68 °F 58.6 °F 29.8 in Calm     72% 0 in 0 W/m2
23:42 67.8 °F 58.8 °F 29.8 in Calm   1 mph 73% 0 in 0 W/m2
23:47 67.6 °F 58.6 °F 29.8 in Calm   2 mph 73% 0 in 0 W/m2
23:52 67.5 °F 58.5 °F 29.8 in Calm   1 mph 73% 0 in 0 W/m2
23:57 67.5 °F 58.8 °F 29.8 in Calm   1 mph 74% 0 in 0 W/m2
Juneau County Weather
Compliments of Weather Underground - 4 mb